Caldwell, NJ

2:13 PM EDT on May 26, 2017 (GMT -0400)
Essex County

Weather History for KCDW - August, 2013

Change the Weather History Date:

Monday, August 26, 2013

  Actual Average Record
Temperature  
Mean Temperature 72 °F -  
Max Temperature 80 °F 82 °F 95 °F (1980)
Min Temperature 64 °F 58 °F 46 °F (1987)
Cooling Degree Days 7    
Growing Degree Days 22 (Base 50)    
Moisture  
Dew Point 61 °F    
Average Humidity 69    
Maximum Humidity 91    
Minimum Humidity 60    
Precipitation  
Precipitation 0.06 in - - ()
Sea Level Pressure  
Sea Level Pressure 30.10 in    
Wind  
Wind Speed 4 mph (SW)    
Max Wind Speed 8 mph    
Max Gust Speed -    
Visibility 9 miles    
Events Rain    
Averages and records for this station are not official NWS values.
T = Trace of Precipitation, MM = Missing Value Source: NWS Daily Summary

Daily Weather History Graph

Daily Weather History Graph

Search for Another Location

Airport or City:

Trip Planner

Search our weather history database for the weather conditions in past years. The results will help you decide how hot, cold, wet, or windy it might be!

Date:

Astronomy

Aug. 26, 2013 Rise Set
Actual Time 6:18 AM EDT 7:38 PM EDT
Civil Twilight 5:49 AM EDT 8:07 PM EDT
Nautical Twilight 5:15 AM EDT 8:41 PM EDT
Astronomical Twilight 4:39 AM EDT 9:17 PM EDT
Moon 10:44 PM EDT 12:20 PM EDT
Length of Visible Light 14h 17m
Length of Day
13h 20m
Waning Gibbous, 67% of the Moon is Illuminated
Aug 26
Waning Gibbous
Aug 28
Last Quarter
Sep 5
New
Sep 12
First Quarter
Sep 19
Full

Hourly Weather History & Observations

Time (EDT) Temp. Heat Index Dew Point Humidity Pressure Visibility Wind Dir Wind Speed Gust Speed Precip Events Conditions
12:53 AM 66.9 °F - 55.0 °F 66% 30.25 in 10.0 mi SSW 3.5 mph - N/A   Clear
1:53 AM 66.9 °F - 55.0 °F 66% 30.25 in 10.0 mi SSW 3.5 mph - N/A   Clear
2:53 AM 66.9 °F - 55.0 °F 66% 30.23 in 10.0 mi SSW 4.6 mph - N/A   Clear
3:53 AM 66.0 °F - 55.0 °F 68% 30.21 in 10.0 mi SSW 5.8 mph - N/A   Clear
4:53 AM 66.0 °F - 55.0 °F 68% 30.21 in 10.0 mi Variable 5.8 mph - N/A   Clear
5:53 AM 66.0 °F - 55.0 °F 68% 30.21 in 10.0 mi Calm Calm - N/A   Clear
6:53 AM 64.9 °F - 55.0 °F 70% 30.20 in 10.0 mi SSW 5.8 mph - N/A   Clear
7:53 AM 64.9 °F - 55.9 °F 73% 30.19 in 10.0 mi SSW 4.6 mph - N/A   Clear
8:53 AM 66.9 °F - 55.9 °F 68% 30.17 in 10.0 mi SW 3.5 mph - N/A   Mostly Cloudy
9:53 AM 70.0 °F - 57.9 °F 65% 30.17 in 10.0 mi Calm Calm - N/A   Partly Cloudy
10:53 AM 71.1 °F - 59.0 °F 66% 30.15 in 10.0 mi Variable 5.8 mph - N/A   Overcast
11:53 AM 73.9 °F - 61.0 °F 64% 30.13 in 10.0 mi Variable 6.9 mph - N/A   Scattered Clouds
12:53 PM 77.0 °F - 62.1 °F 60% 30.11 in 10.0 mi West 8.1 mph - N/A   Scattered Clouds
1:53 PM 75.9 °F - 63.0 °F 64% 30.07 in 10.0 mi Variable 6.9 mph - N/A   Partly Cloudy
2:53 PM 77.0 °F - 63.0 °F 62% 30.03 in 10.0 mi WSW 4.6 mph - N/A   Mostly Cloudy
3:53 PM 77.0 °F - 64.0 °F 64% 30.02 in 10.0 mi Variable 4.6 mph - 0.00 in   Partly Cloudy
4:53 PM 79.0 °F - 64.0 °F 60% 30.00 in 10.0 mi WSW 4.6 mph - N/A   Overcast
5:53 PM 80.1 °F 81.9 °F 64.9 °F 60% 29.99 in 10.0 mi Variable 5.8 mph - N/A   Partly Cloudy
6:53 PM 79.0 °F - 66.0 °F 64% 29.99 in 10.0 mi Calm Calm - N/A   Scattered Clouds
7:53 PM 78.1 °F - 66.0 °F 66% 29.97 in 10.0 mi SW 3.5 mph - N/A   Partly Cloudy
8:53 PM 75.9 °F - 66.9 °F 74% 29.98 in 8.0 mi Calm Calm - 0.00 in Rain Light Rain
9:53 PM 73.0 °F - 70.0 °F 90% 29.98 in 5.0 mi Calm Calm - 0.02 in Rain Light Rain
10:53 PM 72.0 °F - 69.1 °F 91% 29.96 in 4.0 mi Calm Calm - 0.03 in Rain Light Rain
11:53 PM 72.0 °F - 69.1 °F 91% 29.94 in 5.0 mi Calm Calm - 0.01 in   Overcast